Vilnius, Lithuania

11:22 AM EET on February 22, 2017 (GMT +0200)
Vilnius International

Weather History for EYVI - November, 2013

Change the Weather History Date:

Wednesday, November 6, 2013

  Actual Average Record
Temperature  
Mean Temperature 41 °F -  
Max Temperature 42 °F 37 °F 55 °F (2014)
Min Temperature 40 °F 29 °F 6 °F (2006)
Degree Days  
Heating Degree Days 24    
Moisture  
Dew Point 40 °F    
Average Humidity 95    
Maximum Humidity 100    
Minimum Humidity 87    
Precipitation  
Precipitation 0.08 in 0.07 in - ()
Sea Level Pressure  
Sea Level Pressure 29.40 in    
Wind  
Wind Speed 3 mph ()    
Max Wind Speed 8 mph    
Max Gust Speed -    
Visibility 3.4 miles    
Events Rain    
Averages and records for this station are not official NWS values.
T = Trace of Precipitation, MM = Missing Value Source: Averaged Metar Reports

Daily Weather History Graph

Daily Weather History Graph

Search for Another Location

Airport or City:

Trip Planner

Search our weather history database for the weather conditions in past years. The results will help you decide how hot, cold, wet, or windy it might be!

Date:

Astronomy

Nov. 06, 2013 Rise Set
Actual Time 7:31 AM EET 4:32 PM EET
Civil Twilight 6:52 AM EET 5:11 PM EET
Nautical Twilight 6:09 AM EET 5:54 PM EET
Astronomical Twilight 5:27 AM EET 6:36 PM EET
Moon 10:43 AM EET (11/6) 7:01 PM EET (11/6)
Length of Visible Light 10h 19m
Length of Day
9h 01m
Waxing Crescent, 11% of the Moon is Illuminated
Nov 6
Waxing Crescent
Nov 10
First Quarter
Nov 17
Full
Nov 25
Last Quarter
Dec 3
New

Hourly Weather History & Observations

Time (EET) Temp. Windchill Dew Point Humidity Pressure Visibility Wind Dir Wind Speed Gust Speed Precip Events Conditions
12:20 AM 42.8 °F - 41.0 °F 93% 29.42 in 2.5 mi ESE 2.3 mph - N/A   Overcast
12:50 AM 42.8 °F - 41.0 °F 93% 29.39 in 2.5 mi ESE 2.3 mph - N/A   Overcast
1:20 AM 42.8 °F - 41.0 °F 93% 29.39 in 2.5 mi Calm Calm - N/A   Overcast
1:50 AM 41.0 °F - 41.0 °F 100% 29.39 in 1.6 mi Variable 2.3 mph - N/A   Overcast
2:00 AM 42 °F - 41 °F 93% 29.41 in 3 mi Calm Calm - -   Mist
2:20 AM 42.8 °F 41.1 °F 41.0 °F 93% 29.36 in 2.5 mi East 3.5 mph - N/A   Overcast
2:50 AM 42.8 °F - 39.2 °F 87% 29.36 in 2.5 mi Variable 1.2 mph - N/A Rain Light Rain
3:20 AM 41.0 °F 39.0 °F 41.0 °F 100% 29.36 in 2.5 mi ESE 3.5 mph - N/A Rain Light Rain
3:50 AM 41.0 °F 39.0 °F 41.0 °F 100% 29.33 in 2.5 mi ESE 3.5 mph - N/A Rain Light Rain
4:20 AM 42.8 °F - 41.0 °F 93% 29.33 in 2.5 mi Variable 1.2 mph - N/A Rain Light Rain
4:50 AM 41.0 °F 39.0 °F 41.0 °F 100% 29.33 in 2.5 mi SE 3.5 mph - N/A Rain Light Rain
5:00 AM 42 °F - 41 °F 94% 29.37 in 2 mi Calm Calm - - Rain Light Rain
5:20 AM 41.0 °F - 41.0 °F 100% 29.33 in 1.4 mi Variable 1.2 mph - N/A Rain Rain
5:50 AM 41.0 °F - 41.0 °F 100% 29.33 in 1.4 mi Variable 1.2 mph - N/A Rain Rain
6:20 AM 41.0 °F - 39.2 °F 93% 29.33 in 1.4 mi Variable 1.2 mph - N/A Rain Rain
6:50 AM 41.0 °F - 39.2 °F 93% 29.33 in 1.6 mi ENE 1.2 mph - N/A Rain Rain
7:20 AM 41.0 °F - 39.2 °F 93% 29.33 in 1.6 mi SW 1.2 mph - N/A Rain Rain
7:50 AM 41.0 °F - 39.2 °F 93% 29.33 in 1.6 mi WNW 2.3 mph - N/A Rain Rain
8:00 AM 40 °F - 40 °F 98% 29.37 in 6 mi Calm Calm - - Rain Light Rain
8:20 AM 41.0 °F 37.1 °F 39.2 °F 93% 29.33 in 2.5 mi West 5.8 mph - N/A Rain Light Rain
8:50 AM 41.0 °F 38.0 °F 39.2 °F 93% 29.33 in 2.5 mi West 4.6 mph - N/A Rain Light Rain
9:20 AM 41.0 °F 38.0 °F 39.2 °F 93% 29.33 in 2.5 mi SW 4.6 mph - N/A Rain Light Rain
9:50 AM 41.0 °F 37.1 °F 39.2 °F 93% 29.36 in 2.5 mi SW 5.8 mph - N/A Rain Light Rain
10:20 AM 41.0 °F 37.1 °F 39.2 °F 93% 29.36 in 2.5 mi WSW 5.8 mph - N/A Rain Light Rain
10:50 AM 41.0 °F 36.4 °F 39.2 °F 93% 29.36 in 2.5 mi WSW 6.9 mph - N/A Rain Light Rain
11:00 AM 41 °F - 40 °F 93% 29.41 in 12 mi WSW 6.7 mph - - Rain Light Rain
11:20 AM 41.0 °F 36.4 °F 39.2 °F 93% 29.36 in 4.3 mi WSW 6.9 mph - N/A Rain Light Rain
11:50 AM 41.0 °F 36.4 °F 39.2 °F 93% 29.36 in 4.3 mi WSW 6.9 mph - N/A   Overcast
12:20 PM 42.8 °F 38.6 °F 39.2 °F 87% 29.36 in 4.3 mi WSW 6.9 mph - N/A   Overcast
12:50 PM 42.8 °F 38.6 °F 39.2 °F 87% 29.36 in 4.3 mi WSW 6.9 mph - N/A   Overcast
1:20 PM 41.0 °F 36.4 °F 39.2 °F 93% 29.36 in 4.3 mi SW 6.9 mph - N/A   Overcast
1:50 PM 42.8 °F 39.3 °F 41.0 °F 93% 29.39 in 4.3 mi SW 5.8 mph - N/A   Overcast
2:00 PM 42 °F - 41 °F 93% 29.42 in 12 mi SSW 4.5 mph - -   Partly Cloudy
2:20 PM 42.8 °F 39.3 °F 41.0 °F 93% 29.39 in 4.3 mi SSW 5.8 mph - N/A   Overcast
2:50 PM 42.8 °F 38.0 °F 41.0 °F 93% 29.42 in 4.3 mi SSW 8.1 mph - N/A   Overcast
3:20 PM 42.8 °F 39.3 °F 41.0 °F 93% 29.42 in 4.3 mi SSW 5.8 mph - N/A   Overcast
3:50 PM 42.8 °F 38.6 °F 41.0 °F 93% 29.42 in 4.3 mi SSW 6.9 mph - N/A   Mostly Cloudy
4:20 PM 42.8 °F 39.3 °F 41.0 °F 93% 29.42 in 2.5 mi SSW 5.8 mph - N/A   Overcast
4:50 PM 41.0 °F 37.1 °F 41.0 °F 100% 29.42 in 2.5 mi SSW 5.8 mph - N/A   Overcast
5:00 PM 42 °F - 41 °F 95% 29.47 in 8 mi SSW 4.5 mph - -   Overcast
5:20 PM 41.0 °F 36.4 °F 41.0 °F 100% 29.44 in 2.5 mi SSW 6.9 mph - N/A   Overcast
5:50 PM 41.0 °F 38.0 °F 41.0 °F 100% 29.44 in 2.5 mi South 4.6 mph - N/A   Overcast
6:20 PM 41.0 °F 37.1 °F 41.0 °F 100% 29.44 in 2.5 mi SSW 5.8 mph - N/A   Overcast
6:50 PM 41.0 °F 38.0 °F 41.0 °F 100% 29.44 in 2.5 mi South 4.6 mph - N/A   Overcast
7:20 PM 41.0 °F 36.4 °F 41.0 °F 100% 29.44 in 2.5 mi SSW 6.9 mph - N/A   Overcast
7:50 PM 41.0 °F 36.4 °F 41.0 °F 100% 29.47 in 2.5 mi SSW 6.9 mph - N/A   Overcast
8:00 PM 42 °F - 41 °F 94% 29.50 in 5 mi SW 4.5 mph - -   Mist
8:20 PM 42.8 °F 38.6 °F 42.8 °F 100% 29.47 in 2.5 mi SW 6.9 mph - N/A   Overcast
8:50 PM 42.8 °F 38.6 °F 42.8 °F 100% 29.47 in 2.5 mi SW 6.9 mph - N/A   Overcast
9:20 PM 41.0 °F 37.1 °F 41.0 °F 100% 29.47 in 2.5 mi WSW 5.8 mph - N/A   Overcast
9:50 PM 41.0 °F 37.1 °F 41.0 °F 100% 29.47 in 2.5 mi WSW 5.8 mph - N/A   Overcast
10:20 PM 41.0 °F 39.0 °F 41.0 °F 100% 29.47 in 2.5 mi SW 3.5 mph - N/A   Overcast
10:50 PM 41.0 °F 39.0 °F 41.0 °F 100% 29.50 in 2.5 mi SW 3.5 mph - N/A   Overcast
11:00 PM 41 °F - 39 °F 92% 29.54 in 12 mi Calm Calm - - Rain Light Drizzle
11:20 PM 41.0 °F 39.0 °F 39.2 °F 93% 29.50 in 2.5 mi SSW 3.5 mph - N/A Rain Light Rain
11:50 PM 41.0 °F 38.0 °F 41.0 °F 100% 29.50 in 2.5 mi South 4.6 mph - N/A Rain Light Rain